sat.trackr.live / text

‹ back to catalog

ONEWEB-0391

NORAD 50471 · 2021-132C

PAYLOAD ACTIVE UNKNOWN

§ Identity

Operator
Country
UK
Launch date
2021-12-27
Launch site
TYMSC
Launch vehicle
Mass (kg)
RCS (m²)

Purposes: comms

External: N2YO · Heavens-Above · Gunter

§ Orbital elements

Epoch: 2026-09-03T17:16:57.016704Z

Period
109.29 min
Inclination
87.9202°
Eccentricity
0.0001525
Mean motion
13.17649302 rev/d
Perigee alt
1,192.6 km
Apogee alt
1,194.9 km
Semi-major
7,571.8 km
B*
1.2275e-4
RAAN
350.2780°
Arg perigee
126.6341°
Mean anomaly
233.4931°
Rev number
22,842

§ Raw data

ONEWEB-03911 50471U 21132C   26246.72010436  .00000061  00000+0  12275-3 0  99952 50471  87.9202 350.2780 0001525 126.6341 233.4931 13.17649302228427

JSON: /api/v1/satellites/50471 · /tle

For live sub-satellite position, see the globe view (requires WebGL).

§ Visibility from observer

Set your observer location to see the next 7 days of passes ≥ 10°. The values pass through the URL so the page stays shareable.

No JS? Fill the form by hand. The geolocation button needs JavaScript.